GW2517 Weather Reports


Display with metric or nautical units.
time (UTC)temp
F
wind
direction
speed
MPH
gust
MPH
rain 1hr
in
rain 24hr
in
rain mn
in
humidity
%
barometer
mb
20260507130521 38 340 2.0 4.0 0.00 0.00 0.00 71 1011.4
20260507125518 37 9 2.0 4.0 0.00 0.00 0.00 73 1011.5
20260507124515 37 349 4.0 6.0 0.00 0.00 0.00 76 1011.4
20260507123533 36 336 2.0 4.0 0.00 0.00 0.00 76 1011.5
20260507122611 36 340 2.0 5.0 0.00 0.00 0.00 76 1011.4
20260507121527 36 350 1.0 3.0 0.00 0.00 0.00 77 1011.3
20260507120525 35 35 1.0 2.0 0.00 0.00 0.00 78 1011.3
20260507115522 35 33 1.0 2.0 0.00 0.00 0.00 79 1011.3
20260507114519 35 25 2.0 2.0 0.00 0.00 0.00 78 1011.3
20260507113536 35 14 2.0 3.0 0.00 0.00 0.00 78 1011.2
20260507112534 35 19 2.0 3.0 0.00 0.00 0.00 83 1011.2
20260507111531 35 20 2.0 3.0 0.00 0.00 0.00 79 1011.0
20260507110528 35 15 2.0 3.0 0.00 0.00 0.00 79 1011.0
20260507105526 35 18 1.0 3.0 0.00 0.00 0.00 80 1011.1
20260507104522 35 20 2.0 3.0 0.00 0.00 0.00 82 1011.1
20260507103520 35 22 3.0 4.0 0.00 0.00 0.00 78 1011.1
20260507102517 35 14 3.0 4.0 0.00 0.00 0.00 79 1011.1
20260507101534 34 23 2.0 3.0 0.00 0.00 0.00 85 1011.2
20260507100532 34 32 2.0 4.0 0.00 0.00 0.00 85 1011.3
20260507095529 33 26 2.0 3.0 0.00 0.00 0.00 86 1011.2
20260507094526 33 26 3.0 4.0 0.00 0.00 0.00 89 1011.2
20260507093624 32 24 2.0 3.0 0.00 0.00 0.00 91 1011.2
20260507092520 32 9 2.0 3.0 0.00 0.00 0.00 91 1011.2
20260507091538 31 30 2.0 3.0 0.00 0.00 0.00 91 1011.2
20260507090535 31 23 2.0 3.0 0.00 0.00 0.00 91 1011.2
20260507085552 32 22 2.0 3.0 0.00 0.00 0.00 90 1011.1
20260507084530 32 14 2.0 3.0 0.00 0.00 0.00 90 1011.1
20260507083527 33 12 2.0 3.0 0.00 0.00 0.00 88 1011.0
20260507082524 34 33 2.0 3.0 0.00 0.00 0.00 88 1011.1
20260507081521 34 6 2.0 3.0 0.00 0.00 0.00 87 1011.2
20260507080538 34 7 2.0 4.0 0.00 0.00 0.00 88 1011.1
20260507075516 35 23 2.0 3.0 0.00 0.00 0.00 86 1011.2
20260507074533 35 26 2.0 2.0 0.00 0.00 0.00 85 1011.2
20260507073530 35 10 2.0 3.0 0.00 0.00 0.00 85 1011.2
20260507072527 35 11 2.0 2.0 0.00 0.00 0.00 84 1011.3
20260507071546 36 11 2.0 3.0 0.00 0.00 0.00 84 1011.4
20260507070522 36 12 2.0 3.0 0.00 0.00 0.00 85 1011.5
20260507065520 36 4 2.0 3.0 0.00 0.00 0.00 83 1011.6
20260507064516 36 6 3.0 3.0 0.00 0.00 0.00 84 1011.8
20260507063534 36 13 1.0 2.0 0.00 0.00 0.00 82 1011.9
20260507062531 36 23 2.0 2.0 0.00 0.00 0.00 82 1012.0
20260507061529 36 8 2.0 3.0 0.00 0.00 0.00 83 1012.0
20260507060525 36 20 2.0 3.0 0.00 0.00 0.00 80 1012.0
20260507055523 36 2 3.0 3.0 0.00 0.00 0.00 84 1012.1
20260507054520 36 5 2.0 3.0 0.00 0.00 0.00 83 1012.1
20260507053517 36 14 2.0 3.0 0.00 0.00 0.00 80 1012.1
20260507051532 37 28 2.0 4.0 0.00 0.00 0.00 78 1012.3
20260507050530 37 5 2.0 4.0 0.00 0.00 0.00 80 1012.4
20260507045526 37 11 1.0 2.0 0.00 0.00 0.00 82 1012.3
20260507044523 37 360 3.0 3.0 0.00 0.00 0.00 80 1012.3
20260507043520 37 7 2.0 3.0 0.00 0.00 0.00 80 1012.4
20260507042558 37 13 2.0 3.0 0.00 0.00 0.00 78 1012.6
20260507041535 37 12 2.0 3.0 0.00 0.00 0.00 79 1012.6
20260507040532 37 12 2.0 4.0 0.00 0.00 0.00 78 1012.7
20260507035530 37 22 2.0 3.0 0.00 0.00 0.00 74 1012.7
20260507034527 37 20 2.0 3.0 0.00 0.00 0.00 75 1012.8
20260507033524 37 15 2.0 3.0 0.00 0.00 0.00 74 1012.9
20260507032541 37 4 2.0 4.0 0.00 0.00 0.00 79 1013.1
20260507031518 38 360 2.0 3.0 0.00 0.00 0.00 78 1013.0
20260507030536 38 6 3.0 4.0 0.00 0.00 0.00 76 1013.2
20260507025533 39 7 2.0 3.0 0.00 0.00 0.00 72 1013.3
20260507024531 39 24 2.0 3.0 0.00 0.00 0.00 71 1013.2
20260507023528 39 23 1.0 2.0 0.00 0.00 0.00 69 1013.3
20260507022525 39 15 2.0 3.0 0.00 0.00 0.00 67 1013.3
20260507021522 39 19 2.0 3.0 0.00 0.00 0.00 67 1013.4
20260507020600 39 10 2.0 3.0 0.00 0.00 0.00 67 1013.3
20260507015517 40 1 3.0 3.0 0.00 0.00 0.00 65 1013.2
20260507014534 40 3 2.0 3.0 0.00 0.00 0.00 60 1013.2
20260507013531 40 359 2.0 4.0 0.00 0.00 0.00 58 1013.2
20260507012528 40 355 3.0 4.0 0.00 0.00 0.00 58 1013.2
20260507011525 41 345 3.0 6.0 0.00 0.00 0.00 57 1013.2
20260507010522 41 341 4.0 6.0 0.00 0.00 0.00 57 1013.2
20260507005519 41 341 5.0 8.0 0.00 0.00 0.00 56 1013.2
20260507004557 41 336 6.0 10.0 0.00 0.00 0.00 56 1013.3
20260507003535 41 342 6.0 9.0 0.00 0.00 0.00 56 1013.4
20260507002531 41 337 5.0 9.0 0.00 0.00 0.00 56 1013.2
20260507001529 41 335 7.0 12.0 0.00 0.00 0.00 56 1013.3
20260507000526 41 336 5.0 9.0 0.00 0.00 0.00 56 1013.3
20260506235523 41 337 6.0 9.0 0.00 0.00 0.00 56 1013.2
20260506234520 41 336 9.0 13.0 0.00 0.00 0.00 55 1013.3
20260506233558 41 338 6.0 11.0 0.00 0.00 0.00 55 1013.4
20260506232555 41 333 6.0 11.0 0.00 0.00 0.00 55 1013.4
20260506231533 41 346 7.0 11.0 0.00 0.00 0.00 56 1013.4
20260506230529 41 337 8.0 13.0 0.00 0.00 0.00 55 1013.4
20260506225526 42 331 8.0 13.0 0.00 0.00 0.00 55 1013.4
20260506224524 42 334 8.0 15.0 0.00 0.00 0.00 55 1013.4
20260506223521 42 336 7.0 11.0 0.00 0.00 0.00 55 1013.4
20260506222518 41 337 7.0 11.0 0.00 0.00 0.00 56 1013.5
20260506221515 42 340 7.0 12.0 0.00 0.00 0.00 55 1013.6
20260506220533 41 333 6.0 13.0 0.00 0.00 0.00 55 1013.5
20260506215530 41 317 4.0 9.0 0.00 0.00 0.00 55 1013.5
20260506214527 41 336 9.0 17.0 0.00 0.00 0.00 56 1013.5
20260506213524 41 329 5.0 12.0 0.00 0.00 0.00 56 1013.5
20260506212521 41 325 8.0 15.0 0.00 0.00 0.00 56 1013.5
20260506211518 41 318 6.0 14.0 0.00 0.00 0.00 55 1013.5
20260506210515 41 290 5.0 9.0 0.00 0.00 0.00 55 1013.6
20260506205534 41 337 8.0 12.0 0.00 0.00 0.00 56 1013.5
20260506204530 41 338 8.0 11.0 0.00 0.00 0.00 57 1013.6
20260506203527 41 335 9.0 15.0 0.00 0.00 0.00 57 1013.7
20260506202525 41 337 7.0 16.0 0.00 0.00 0.00 56 1013.7
20260506201522 40 337 10.0 15.0 0.00 0.00 0.00 58 1013.7
20260506200519 40 337 5.0 7.0 0.00 0.00 0.00 59 1013.8
20260506195537 40 338 8.0 12.0 0.00 0.00 0.00 60 1013.9
20260506194534 40 340 8.0 13.0 0.00 0.00 0.00 61 1013.7
20260506193530 40 340 9.0 14.0 0.00 0.00 0.00 61 1013.8
20260506192528 40 339 9.0 13.0 0.00 0.00 0.00 61 1013.7
20260506191525 40 335 8.0 16.0 0.00 0.00 0.00 61 1013.8
20260506190522 40 340 8.0 12.0 0.00 0.00 0.00 61 1013.8
20260506185519 40 337 7.0 14.0 0.00 0.00 0.00 62 1013.9
20260506184516 40 331 7.0 13.0 0.00 0.00 0.00 62 1013.9
20260506183535 40 336 9.0 14.0 0.00 0.00 0.00 62 1013.9
20260506182531 40 335 9.0 13.0 0.00 0.00 0.00 62 1013.7
20260506181528 40 336 5.0 11.0 0.00 0.00 0.00 61 1013.8
20260506180525 40 338 6.0 11.0 0.00 0.00 0.00 60 1013.8
20260506175523 40 330 8.0 13.0 0.00 0.00 0.00 60 1013.9
20260506174520 40 339 6.0 10.0 0.00 0.00 0.00 60 1013.8
20260506173558 39 337 6.0 13.0 0.00 0.00 0.00 59 1014.0
20260506172534 40 337 6.0 10.0 0.00 0.00 0.00 59 1014.0
20260506171532 39 342 6.0 9.0 0.00 0.00 0.00 59 1013.9
20260506170529 39 324 6.0 12.0 0.00 0.00 0.00 58 1014.1
20260506165526 39 328 9.0 13.0 0.00 0.00 0.00 58 1014.1
20260506164524 40 336 8.0 13.0 0.00 0.00 0.00 58 1014.0
20260506163540 39 336 9.0 15.0 0.00 0.00 0.00 58 1014.0
20260506162517 39 331 8.0 13.0 0.00 0.00 0.00 58 1014.0
20260506161535 39 336 10.0 15.0 0.00 0.00 0.00 58 1014.0
20260506160532 39 330 8.0 13.0 0.00 0.00 0.00 58 1013.9
20260506155530 39 344 9.0 13.0 0.00 0.00 0.00 59 1014.0
20260506154548 38 330 7.0 13.0 0.00 0.00 0.00 59 1014.1
20260506153524 38 333 7.0 11.0 0.00 0.00 0.00 59 1014.0
20260506152541 38 334 8.0 13.0 0.00 0.00 0.00 58 1014.1
20260506151518 39 339 8.0 14.0 0.00 0.00 0.00 59 1014.0
20260506150536 38 334 8.0 11.0 0.00 0.00 0.00 59 1013.9
20260506145533 38 327 7.0 11.0 0.00 0.00 0.00 58 1013.8
20260506144530 38 347 8.0 13.0 0.00 0.00 0.00 59 1013.9
20260506143548 38 345 10.0 15.0 0.00 0.00 0.00 59 1013.9
20260506142544 38 334 8.0 11.0 0.00 0.00 0.00 59 1013.7
20260506141542 38 333 8.0 13.0 0.00 0.00 0.00 59 1013.6
20260506140519 37 340 10.0 13.0 0.00 0.00 0.00 59 1013.6
20260506135536 38 354 7.0 11.0 0.00 0.00 0.00 60 1013.4
20260506134533 37 347 7.0 11.0 0.00 0.00 0.00 60 1013.4
20260506133550 37 359 7.0 9.0 0.00 0.00 0.00 60 1013.5
20260506132549 37 352 8.0 11.0 0.00 0.00 0.00 62 1013.2
20260506131525 37 350 6.0 10.0 0.00 0.00 0.00 62 1013.3